DW2149 Weather Reports


time (UTC)temp
C
wind
direction
speed
KPH
gust
KPH
rain 1hr
cm
rain 24hr
cm
rain mn
cm
humidity
%
barometer
mb
20260505151436 7 313 0.0 0.0 0.00 0.91 0.30 91 1013.4
20260505151225 7 313 0.0 0.0 0.00 0.91 0.30 91 1013.4
20260505151013 7 313 0.0 0.0 0.00 0.91 0.30 91 1013.3
20260505150625 7 313 0.0 0.0 0.00 0.91 0.30 91 1013.4
20260505150235 7 313 0.0 0.0 0.00 0.91 0.30 91 1013.3
20260505140608 7 316 0.0 0.0 0.00 0.94 0.30 91 1013.0
20260505140406 7 315 0.0 0.0 0.00 0.94 0.30 91 1012.8
20260505140204 7 315 0.0 0.0 0.00 0.94 0.30 91 1012.8
20260505130213 7 315 0.0 0.0 0.13 1.02 0.28 91 1012.6
20260505125019 7 315 0.0 0.0 0.13 0.99 0.25 90 1012.6
20260505124630 7 315 0.0 0.0 0.13 0.99 0.25 90 1012.5
20260505124427 7 315 0.0 0.0 0.15 0.97 0.23 90 1012.5
20260505124225 7 315 0.0 0.0 0.18 0.97 0.23 90 1012.5
20260505124015 7 315 0.0 0.0 0.23 0.97 0.23 90 1012.5
20260505123808 7 315 0.0 0.0 0.28 0.97 0.23 90 1012.5
20260505123558 7 316 0.0 0.0 0.28 0.97 0.23 90 1012.5
20260505123345 7 315 0.0 0.0 0.25 0.94 0.20 90 1012.5
20260505123132 7 315 0.0 0.0 0.25 0.94 0.20 90 1012.5
20260505122927 7 316 0.0 0.0 0.25 0.91 0.20 90 1012.5
20260505122723 7 316 0.0 0.0 0.23 0.91 0.18 90 1012.5
20260505122512 7 316 0.0 0.0 0.23 0.91 0.18 90 1012.5
20260505122300 7 315 0.0 0.0 0.23 0.89 0.18 90 1012.5
20260505121904 7 316 0.0 0.0 0.10 0.89 0.15 90 1012.4
20260505121703 7 316 0.0 0.0 0.10 0.89 0.15 90 1012.3
20260505121453 7 316 0.0 0.0 0.10 0.86 0.13 90 1012.4
20260505121251 7 315 0.0 0.0 0.10 0.86 0.13 90 1012.3
20260505121049 7 316 0.0 0.0 0.10 0.86 0.13 90 1012.4
20260505120840 7 316 0.0 0.0 0.10 0.86 0.13 90 1012.4
20260505120628 7 316 0.0 0.0 0.10 0.86 0.13 90 1012.4
20260505120424 7 315 0.0 0.0 0.10 0.86 0.13 90 1012.4
20260505120222 7 315 0.0 0.0 0.10 0.86 0.13 90 1012.4
20260505120015 7 316 0.0 0.0 0.10 0.84 0.10 90 1012.4
20260505115443 7 315 0.0 0.0 0.13 0.84 0.10 90 1012.5
20260505114908 7 316 0.0 0.0 0.13 0.86 0.10 90 1012.5
20260505114703 7 315 0.0 0.0 0.13 0.86 0.10 90 1012.5
20260505114132 7 315 0.0 0.0 0.10 0.86 0.08 90 1012.5
20260505113745 7 315 0.0 0.0 0.10 0.89 0.08 90 1012.5
20260505113541 7 315 0.0 0.0 0.10 0.89 0.08 90 1012.5
20260505113333 7 316 0.0 0.0 0.00 0.86 0.05 90 1012.5
20260505113121 7 316 0.0 0.0 0.00 0.86 0.05 90 1012.5
20260505112911 7 316 0.0 0.0 0.00 0.86 0.05 90 1012.5
20260505112707 7 316 0.0 0.0 0.00 0.86 0.05 90 1012.5
20260505112504 7 315 0.0 0.0 0.00 0.91 0.05 90 1012.5
20260505112300 7 315 0.0 0.0 0.00 0.91 0.05 90 1012.5
20260505112049 7 316 0.0 0.0 0.00 0.91 0.05 90 1012.5
20260505111838 7 316 0.0 0.0 0.00 0.91 0.05 90 1012.5
20260505111446 7 316 0.0 0.0 0.00 0.91 0.03 90 1012.5
20260505111235 7 316 0.0 0.0 0.00 0.91 0.03 90 1012.5
20260505111027 7 315 0.0 0.0 0.00 0.94 0.03 90 1012.6
20260505110633 7 315 0.0 0.0 0.00 0.94 0.03 90 1012.6
20260505110427 7 316 0.0 0.0 0.00 0.94 0.03 90 1012.5
20260505110219 7 316 0.0 0.0 0.00 0.97 0.03 90 1012.6
20260505102044 7 316 0.0 0.0 0.00 0.94 0.00 90 1012.6
20260505101841 7 316 0.0 0.0 0.00 0.94 0.00 90 1012.6
20260505101640 7 315 0.0 0.0 0.00 0.94 0.00 90 1012.6
20260505101431 7 315 0.0 0.0 0.00 0.94 0.00 90 1012.6
20260505101221 7 315 0.0 0.0 0.00 0.94 0.00 90 1012.6
20260505101009 7 315 0.0 0.0 0.00 0.94 0.00 90 1012.6
20260505100804 7 316 0.0 0.0 0.00 0.94 0.00 90 1012.6
20260505100553 7 315 0.0 0.0 0.00 0.94 0.00 90 1012.6
20260505100344 7 316 0.0 0.0 0.00 0.94 0.00 90 1012.6
20260505100137 7 315 0.0 0.0 0.00 0.94 0.00 90 1012.6
20260505095934 7 315 0.0 0.0 0.00 0.94 0.00 90 1012.6
20260505095724 7 316 0.0 0.0 0.00 0.94 0.00 90 1012.6
20260505095512 7 316 0.0 0.0 0.00 0.94 0.00 90 1012.6
20260505095304 7 316 0.0 0.0 0.00 0.94 0.00 90 1012.7
20260505095051 7 315 0.0 0.0 0.00 0.94 0.00 90 1012.6
20260505094849 7 315 0.0 0.0 0.00 0.94 0.00 90 1012.6
20260505094451 7 315 0.0 0.0 0.00 0.94 0.00 90 1012.7
20260505094246 7 316 0.0 0.0 0.00 0.94 0.00 90 1012.7
20260505093856 7 315 0.0 0.0 0.00 0.94 0.00 90 1012.7
20260505093654 7 315 0.0 0.0 0.00 0.94 0.00 90 1012.6
20260505093120 7 315 0.0 0.0 0.00 0.94 0.00 90 1012.6
20260505092917 7 315 0.0 0.0 0.00 0.94 0.00 90 1012.6
20260505092709 7 316 0.0 0.0 0.00 0.94 0.00 90 1012.7
20260505092501 7 315 0.0 0.0 0.00 0.94 0.00 90 1012.8
20260505092105 7 315 0.0 0.0 0.00 0.94 0.00 90 1012.8
20260505091859 7 316 0.0 0.0 0.00 0.94 0.00 90 1012.8
20260505091649 7 315 0.0 0.0 0.00 0.94 0.00 90 1012.8
20260505091256 7 315 0.0 0.0 0.00 0.94 0.00 90 1012.8
20260505090909 7 315 0.0 0.0 0.00 0.94 0.00 90 1013.0
20260505090657 7 315 0.0 0.0 0.00 0.94 0.00 90 1012.9
20260505090444 7 315 0.0 0.0 0.00 0.94 0.00 90 1012.9
20260505090242 7 315 0.0 0.0 0.00 0.94 0.00 90 1012.9
20260505090032 7 315 0.0 0.0 0.00 0.94 0.00 90 1012.9
20260505085636 7 316 0.0 0.0 0.00 0.94 0.00 90 1012.8
20260505085101 7 316 0.0 0.0 0.00 0.94 0.00 90 1012.9
20260505084849 7 316 0.0 0.0 0.00 0.94 0.00 90 1012.9
20260505084644 7 315 0.0 0.0 0.00 0.94 0.00 90 1013.0
20260505084440 7 315 0.0 0.0 0.00 0.94 0.00 90 1013.0
20260505084229 7 315 0.0 0.0 0.00 0.94 0.00 90 1013.0
20260505084025 7 315 0.0 0.0 0.00 0.94 0.00 90 1013.0
20260505083817 7 315 0.0 0.0 0.00 0.94 0.00 90 1013.1
20260505083607 7 316 0.0 0.0 0.00 0.94 0.00 90 1013.1
20260505083403 7 315 0.0 0.0 0.00 0.94 0.00 90 1013.2
20260505083017 7 315 0.0 0.0 0.00 0.94 0.00 90 1013.2
20260505082815 7 316 0.0 0.0 0.00 0.94 0.00 90 1013.3
20260505082611 7 315 0.0 0.0 0.00 0.94 0.00 90 1013.2
20260505082408 7 315 0.0 0.0 0.00 0.94 0.00 90 1013.2
20260505082201 7 316 0.0 0.0 0.00 0.94 0.00 90 1013.1
20260505081804 7 315 0.0 0.0 0.00 0.94 0.00 90 1013.2
20260505081600 7 315 0.0 0.0 0.00 0.94 0.00 90 1013.2
20260505081209 7 316 0.0 0.0 0.00 0.94 0.00 90 1013.2
20260505081004 7 316 0.0 0.0 0.00 0.94 0.00 90 1013.2
20260505080752 7 315 0.0 0.0 0.00 0.94 0.00 90 1013.2
20260505080545 7 315 0.0 0.0 0.00 0.94 0.00 90 1013.2
20260505080334 7 316 0.0 0.0 0.00 0.94 0.00 90 1013.2
20260505075803 7 315 0.0 0.0 0.00 0.94 0.00 90 1013.3
20260505075559 7 315 0.0 0.0 0.00 0.94 0.00 90 1013.2
20260505075349 7 315 0.0 0.0 0.00 0.94 0.00 90 1013.2
20260505075143 7 316 0.0 0.0 0.00 0.94 0.00 90 1013.2
20260505074749 7 316 0.0 0.0 0.00 0.94 0.00 90 1013.3
20260505074545 7 316 0.0 0.0 0.00 0.94 0.00 90 1013.3
20260505074336 7 315 0.0 0.0 0.00 0.94 0.00 90 1013.3
20260505074126 7 316 0.0 0.0 0.00 0.94 0.00 90 1013.3
20260505073732 7 316 0.0 0.0 0.00 0.94 0.00 90 1013.3
20260505073524 7 315 0.0 0.0 0.00 0.94 0.00 90 1013.3
20260505073316 7 315 0.0 0.0 0.00 0.94 0.00 90 1013.3
20260505073105 7 315 0.0 0.0 0.00 0.94 0.00 90 1013.3
20260505072710 7 315 0.0 0.0 0.00 0.94 0.00 90 1013.3
20260505072501 7 315 0.0 0.0 0.00 0.94 0.00 90 1013.2
20260505072248 7 315 0.0 0.0 0.00 0.94 0.00 90 1013.2
20260505071341 7 316 0.0 0.0 0.00 0.94 0.00 90 1013.2
20260505071134 7 315 0.0 0.0 0.00 0.94 0.00 90 1013.2
20260505070931 7 316 0.0 0.0 0.00 0.94 0.00 90 1013.2
20260505070537 7 315 0.0 0.0 0.00 0.94 0.00 90 1013.2
20260505070330 7 315 0.0 0.0 0.00 0.94 0.00 90 1013.1
20260505070119 7 316 0.0 0.0 0.00 0.94 0.00 90 1013.1
20260505065909 7 316 0.0 0.0 0.00 0.94 0.94 90 1013.1
20260505065657 7 315 0.0 0.0 0.00 0.94 0.94 90 1013.1
20260505065456 7 315 0.0 0.0 0.00 0.94 0.94 90 1013.1
20260505065249 7 315 0.0 0.0 0.00 0.94 0.94 90 1013.1
20260505065039 7 316 0.0 0.0 0.00 0.94 0.94 90 1013.1
20260505064835 7 315 0.0 0.0 0.00 0.94 0.94 90 1013.1
20260505064623 7 315 0.0 0.0 0.00 0.94 0.94 90 1013.0
20260505064420 7 315 0.0 0.0 0.00 0.94 0.94 90 1013.1
20260505064209 7 316 0.0 0.0 0.00 0.94 0.94 90 1013.1
20260505063959 7 315 0.0 0.0 0.00 0.94 0.94 90 1013.1
20260505063751 7 315 0.0 0.0 0.00 0.94 0.94 90 1013.1
20260505063358 7 315 0.0 0.0 0.00 0.94 0.94 90 1013.0
20260505063153 7 315 0.0 0.0 0.00 0.94 0.94 90 1013.1
20260505062944 7 315 0.0 0.0 0.00 0.94 0.94 90 1013.0
20260505062733 7 315 0.0 0.0 0.00 0.94 0.94 90 1013.0
20260505062527 7 316 0.0 0.0 0.00 0.94 0.94 90 1013.0
20260505062319 7 315 0.0 0.0 0.00 0.94 0.94 90 1013.0
20260505062114 7 315 0.0 0.0 0.00 0.94 0.94 90 1013.0
20260505061720 7 315 0.0 0.0 0.00 0.94 0.94 90 1013.0
20260505061509 7 315 0.0 0.0 0.00 0.94 0.94 90 1013.0
20260505061300 7 315 0.0 0.0 0.00 0.94 0.94 90 1013.0
20260505061059 7 316 0.0 0.0 0.00 0.94 0.94 90 1013.0
20260505060847 7 316 0.0 0.0 0.00 0.94 0.94 90 1013.0
20260505060645 8 315 0.0 0.0 0.00 0.94 0.94 90 1013.0
20260505060442 7 315 0.0 0.0 0.00 0.94 0.94 90 1013.1
20260505060233 8 315 0.0 0.0 0.00 0.94 0.94 90 1013.1
20260505055701 8 315 0.0 0.0 0.00 0.94 0.94 90 1013.1
20260505055457 8 315 0.0 0.0 0.00 0.94 0.94 90 1013.1
20260505055255 8 316 0.0 0.0 0.00 0.94 0.94 90 1013.1
20260505054905 8 315 0.0 0.0 0.00 0.94 0.94 90 1013.1
20260505054703 8 316 0.0 0.0 0.00 0.94 0.94 90 1013.1
20260505054456 8 316 0.0 0.0 0.00 0.94 0.94 90 1013.2
20260505054244 8 315 0.0 0.0 0.00 0.94 0.94 90 1013.2
20260505054033 8 315 0.0 0.0 0.00 0.94 0.94 90 1013.3
20260505053828 8 315 0.0 0.0 0.00 0.94 0.94 90 1013.2
20260505053625 8 316 0.0 0.0 0.00 0.94 0.94 90 1013.3
20260505053414 8 315 0.0 0.0 0.00 0.94 0.94 90 1013.3
20260505053024 8 316 0.0 0.0 0.00 0.94 0.94 90 1013.4
20260505052811 8 316 0.0 0.0 0.00 0.94 0.94 90 1013.4
20260505052606 8 316 0.0 0.0 0.00 0.94 0.94 90 1013.5
20260505052402 8 316 0.0 0.0 0.00 0.94 0.94 90 1013.4
20260505052152 8 315 0.0 0.0 0.00 0.94 0.94 90 1013.4
20260505051940 8 315 0.0 0.0 0.00 0.94 0.94 90 1013.4
20260505051737 8 315 0.0 0.0 0.00 0.94 0.94 90 1013.4
20260505051529 8 315 0.0 0.0 0.00 0.94 0.94 90 1013.4
20260505051324 8 316 0.0 0.0 0.00 0.94 0.94 90 1013.4
20260505050935 8 316 0.0 0.0 0.00 0.94 0.94 90 1013.5
20260505050725 8 315 0.0 0.0 0.00 0.94 0.94 90 1013.5
20260505050513 8 315 0.0 0.0 0.00 0.94 0.94 90 1013.5
20260505050309 8 315 0.0 0.0 0.00 0.94 0.94 90 1013.5
20260505050104 8 315 0.0 0.0 0.00 0.94 0.94 90 1013.4
20260505041710 8 315 0.0 0.0 0.00 0.94 0.94 90 1013.2
20260505041458 8 316 0.0 0.0 0.00 0.94 0.94 90 1013.2
20260505041249 8 315 0.0 0.0 0.00 0.94 0.94 90 1013.1
20260505041042 8 315 0.0 0.0 0.00 0.94 0.94 90 1013.1
20260505040836 8 315 0.0 0.0 0.00 0.94 0.94 90 1013.1
20260505040625 8 315 0.0 0.0 0.00 0.94 0.94 90 1013.1
20260505040415 8 315 0.0 0.0 0.00 0.94 0.94 90 1013.0
20260505040021 8 315 0.0 0.0 0.00 0.94 0.94 90 1012.9
20260505035808 8 315 0.0 0.0 0.00 0.94 0.94 90 1012.9
20260505035601 8 315 0.0 0.0 0.00 0.91 0.91 90 1012.9
20260505035207 8 315 0.0 0.0 0.00 0.91 0.91 90 1012.8
20260505034954 8 315 0.0 0.0 0.00 0.91 0.91 90 1012.8
20260505034748 8 316 0.0 0.0 0.00 0.91 0.91 90 1012.8
20260505034543 8 315 0.0 0.0 0.00 0.91 0.91 90 1012.7
20260505034338 8 315 0.0 0.0 0.00 0.91 0.91 90 1012.7
20260505034134 8 316 0.0 0.0 0.00 0.91 0.91 90 1012.7
20260505033925 8 316 0.0 0.0 0.00 0.91 0.91 90 1012.7
20260505033718 8 316 0.0 0.0 0.00 0.91 0.91 90 1012.7
20260505033516 8 315 0.0 0.0 0.00 0.91 0.91 90 1012.8
20260505033312 8 316 0.0 0.0 0.00 0.91 0.91 90 1012.7
20260505033108 8 315 0.0 0.0 0.00 0.91 0.91 90 1012.7
20260505032720 8 315 0.0 0.0 0.00 0.91 0.91 90 1012.6
20260505032507 8 315 0.0 0.0 0.00 0.91 0.91 90 1012.6
20260505032115 8 316 0.0 0.0 0.00 0.91 0.91 90 1012.5
20260505031906 8 316 0.0 0.0 0.00 0.91 0.91 90 1012.5
20260505031702 8 315 0.0 0.0 0.00 0.91 0.91 90 1012.6
20260505031500 8 315 0.0 0.0 0.00 0.91 0.91 90 1012.6
20260505031254 8 316 0.0 0.0 0.00 0.91 0.91 90 1012.6
20260505031052 8 315 0.0 0.0 0.00 0.91 0.91 90 1012.5
20260505030841 8 316 0.0 0.0 0.00 0.91 0.91 90 1012.5
20260505030631 8 315 0.0 0.0 0.00 0.91 0.91 90 1012.5
20260505030424 8 316 0.0 0.0 0.00 0.91 0.91 90 1012.4
20260505030212 8 315 0.0 0.0 0.00 0.91 0.91 90 1012.4
20260505030007 8 315 0.0 0.0 0.00 0.91 0.91 90 1012.3
20260505025757 8 315 0.0 0.0 0.00 0.91 0.91 90 1012.4
20260505025548 8 316 0.0 0.0 0.00 0.91 0.91 90 1012.3
20260505025343 8 315 0.0 0.0 0.00 0.91 0.91 90 1012.4
20260505025141 8 315 0.0 0.0 0.00 0.91 0.91 90 1012.4
20260505024935 8 315 0.0 0.0 0.00 0.91 0.91 90 1012.4
20260505024730 8 315 0.0 1.6 0.00 0.91 0.91 90 1012.4
20260505024525 8 315 0.0 1.6 0.00 0.91 0.91 90 1012.4
20260505024320 8 321 0.0 0.0 0.00 0.91 0.91 90 1012.3
20260505024113 8 321 0.0 0.0 0.00 0.91 0.91 90 1012.3
20260505023901 8 321 0.0 0.0 0.00 0.91 0.91 90 1012.2
20260505023652 8 321 0.0 0.0 0.00 0.91 0.91 90 1012.3
20260505023443 8 321 0.0 0.0 0.00 0.91 0.91 90 1012.3
20260505023237 8 321 0.0 0.0 0.00 0.91 0.91 90 1012.3
20260505023028 8 321 0.0 0.0 0.00 0.91 0.91 90 1012.3
20260505022822 8 321 0.0 0.0 0.00 0.91 0.91 90 1012.2
20260505022616 8 321 0.0 0.0 0.00 0.91 0.91 90 1012.2
20260505022410 8 321 0.0 0.0 0.00 0.91 0.91 90 1012.2
20260505022202 8 321 0.0 0.0 0.00 0.91 0.91 90 1012.2
20260505021807 8 321 0.0 1.6 0.00 0.91 0.91 90 1012.2
20260505021555 8 321 0.0 0.0 0.00 0.91 0.91 90 1012.2
20260505021342 8 322 0.0 0.0 0.00 0.91 0.91 90 1012.1
20260505021136 8 321 0.0 0.0 0.00 0.91 0.91 90 1012.2
20260505020923 8 321 0.0 0.0 0.00 0.91 0.91 90 1012.1
20260505020713 8 321 0.0 0.0 0.00 0.91 0.91 90 1012.2
20260505020509 8 321 0.0 0.0 0.00 0.91 0.91 90 1012.1
20260505020307 8 321 0.0 0.0 0.00 0.91 0.91 90 1012.2
20260505020103 8 321 0.0 0.0 0.00 0.91 0.91 90 1012.2
20260505015853 8 321 0.0 0.0 0.00 0.91 0.91 90 1012.2
20260505015643 8 321 0.0 0.0 0.00 0.91 0.91 90 1012.3
20260505015435 8 321 0.0 0.0 0.00 0.91 0.91 90 1012.2
20260505015233 8 321 0.0 0.0 0.00 0.91 0.91 90 1012.3
20260505014845 8 321 0.0 0.0 0.00 0.91 0.91 90 1012.3
20260505014643 8 321 0.0 0.0 0.00 0.91 0.91 90 1012.3
20260505014434 8 321 0.0 0.0 0.00 0.91 0.91 90 1012.2
20260505014223 8 321 0.0 0.0 0.00 0.91 0.91 90 1012.2
20260505014010 8 321 0.0 0.0 0.00 0.91 0.91 90 1012.3
20260505013806 8 322 0.0 0.0 0.00 0.91 0.91 90 1012.3
20260505013601 8 321 0.0 0.0 0.00 0.91 0.91 90 1012.3
20260505013357 8 322 0.0 0.0 0.00 0.91 0.91 90 1012.3
20260505013149 8 321 0.0 0.0 0.00 0.91 0.91 90 1012.3
20260505012758 8 321 0.0 0.0 0.00 0.89 0.89 90 1012.3
20260505012556 8 322 0.0 0.0 0.00 0.89 0.89 90 1012.4
20260505012352 8 322 0.0 0.0 0.00 0.89 0.89 90 1012.4
20260505012142 8 322 0.0 0.0 0.00 0.89 0.89 90 1012.4
20260505011937 8 322 0.0 0.0 0.00 0.89 0.89 90 1012.4
20260505011733 8 321 0.0 0.0 0.00 0.89 0.89 90 1012.4
20260505011529 8 322 0.0 0.0 0.00 0.89 0.89 90 1012.5
20260505011317 8 322 0.0 0.0 0.00 0.89 0.89 90 1012.5
20260505011113 8 322 0.0 0.0 0.00 0.89 0.89 90 1012.5
20260505010905 8 321 0.0 0.0 0.00 0.89 0.89 90 1012.5
20260505010659 8 322 0.0 0.0 0.00 0.89 0.89 90 1012.5
20260505010449 8 322 0.0 1.6 0.00 0.89 0.89 90 1012.5
20260505010246 8 321 0.0 0.0 0.00 0.89 0.89 90 1012.5
20260505010037 8 321 0.0 0.0 0.00 0.89 0.89 90 1012.4
20260505005829 8 321 0.0 0.0 0.00 0.89 0.89 90 1012.4
20260505005625 8 321 0.0 0.0 0.00 0.89 0.89 90 1012.5
20260505005415 8 321 0.0 0.0 0.00 0.89 0.89 90 1012.4
20260505005213 8 321 0.0 1.6 0.00 0.89 0.89 90 1012.5
20260505005000 8 321 0.0 0.0 0.00 0.89 0.89 90 1012.6
20260505004753 8 321 0.0 0.0 0.00 0.89 0.89 90 1012.6
20260505004549 8 321 0.0 0.0 0.00 0.89 0.89 90 1012.6
20260505004157 8 321 0.0 0.0 0.00 0.89 0.89 90 1012.6
20260505003948 8 321 0.0 0.0 0.00 0.89 0.89 90 1012.6
20260505003743 8 321 0.0 0.0 0.10 0.89 0.89 90 1012.6
20260505003538 8 321 0.0 0.0 0.13 0.89 0.89 90 1012.6
20260505003335 8 321 0.0 0.0 0.13 0.89 0.89 90 1012.6
20260505003134 8 321 0.0 1.6 0.15 0.89 0.89 90 1012.5
20260505002927 8 321 0.0 0.0 0.15 0.89 0.89 90 1012.5
20260505002532 8 321 0.0 0.0 0.15 0.89 0.89 90 1012.5
20260505002321 8 321 0.0 0.0 0.15 0.86 0.89 90 1012.6
20260505002108 8 321 0.0 0.0 0.00 0.86 0.84 90 1012.7
20260505001903 8 321 0.0 0.0 0.00 0.86 0.84 90 1012.5
20260505001507 8 321 0.0 0.0 0.00 0.86 0.84 90 1012.6
20260505001113 8 321 0.0 0.0 0.00 0.84 0.84 90 1012.6
20260505000721 8 321 0.0 3.2 0.00 0.84 0.84 90 1012.6
20260505000517 8 318 0.0 3.2 0.00 0.84 0.84 90 1012.5
20260505000315 8 318 0.0 3.2 0.00 0.84 0.84 90 1012.5
20260505000104 8 317 0.0 3.2 0.00 0.84 0.84 90 1012.5
20260504235706 8 327 0.0 1.6 0.00 0.84 0.84 90 1012.5
20260504235311 8 328 0.0 4.8 0.00 0.84 0.84 90 1012.5
20260504235108 8 327 0.0 3.2 0.00 0.84 0.84 90 1012.5
20260504234859 8 328 0.0 0.0 0.00 0.81 0.81 90 1012.5
20260504234656 8 328 0.0 0.0 0.00 0.81 0.81 90 1012.5
20260504234447 8 329 0.0 0.0 0.10 0.81 0.81 90 1012.5
20260504234237 8 329 0.0 0.0 0.13 0.81 0.81 90 1012.5
20260504234024 8 329 0.0 0.0 0.15 0.81 0.81 90 1012.4
20260504233814 8 329 0.0 1.6 0.15 0.81 0.81 90 1012.5
20260504233602 8 329 0.0 1.6 0.15 0.81 0.81 90 1012.4
20260504233356 8 328 0.0 0.0 0.15 0.81 0.81 90 1012.4
20260504233153 8 328 0.0 4.8 0.15 0.81 0.81 90 1012.4
20260504232949 8 306 0.0 1.6 0.15 0.79 0.79 90 1012.3
20260504232602 8 306 0.0 0.0 0.00 0.79 0.79 90 1012.4
20260504232354 8 306 0.0 1.6 0.00 0.79 0.79 89 1012.4
20260504232151 8 306 0.0 1.6 0.00 0.79 0.79 89 1012.6
20260504231948 8 305 0.0 0.0 0.00 0.76 0.74 89 1012.6
20260504231737 8 305 0.0 3.2 0.00 0.76 0.74 89 1012.6
20260504231350 8 305 0.0 3.2 0.00 0.76 0.74 89 1012.6
20260504230957 8 306 0.0 0.0 0.00 0.76 0.74 89 1012.5
20260504230746 8 306 0.0 0.0 0.00 0.76 0.74 89 1012.4
20260504230544 8 306 0.0 0.0 0.00 0.76 0.74 89 1012.5
20260504230334 8 306 0.0 0.0 0.00 0.76 0.74 89 1012.5
20260504230129 8 306 0.0 4.8 0.00 0.76 0.74 89 1012.5
20260504225924 8 212 0.0 0.0 0.00 0.76 0.74 89 1012.5
20260504225713 8 212 0.0 1.6 0.10 0.74 0.74 89 1012.5
20260504225511 8 211 0.0 0.0 0.10 0.74 0.74 89 1012.6
20260504224936 8 211 0.0 1.6 0.13 0.74 0.74 89 1012.6
20260504224730 8 211 0.0 0.0 0.13 0.74 0.74 89 1012.5
20260504224343 8 211 0.0 1.6 0.13 0.74 0.74 89 1012.5
20260504223809 8 211 0.0 0.0 0.13 0.71 0.71 90 1012.5
20260504223558 8 211 0.0 3.2 0.13 0.71 0.71 90 1012.4
20260504223348 8 212 0.0 0.0 0.13 0.71 0.71 89 1012.4
20260504222950 8 212 0.0 0.0 0.13 0.71 0.71 89 1012.5
20260504222740 8 211 0.0 0.0 0.13 0.69 0.66 90 1012.5
20260504222530 8 212 0.0 0.0 0.13 0.69 0.66 89 1012.6
20260504222138 8 212 0.0 0.0 0.13 0.69 0.66 90 1012.6
20260504221932 8 211 0.0 0.0 0.13 0.69 0.66 89 1012.6
20260504221543 8 212 0.0 1.6 0.13 0.66 0.66 89 1012.6
20260504221341 8 211 0.0 0.0 0.00 0.66 0.66 89 1012.6
20260504221136 8 211 0.0 3.2 0.00 0.66 0.66 89 1012.6
20260504220926 8 211 0.0 0.0 0.00 0.66 0.66 89 1012.5
20260504220536 8 211 0.0 0.0 0.00 0.66 0.66 89 1012.5
20260504220335 8 211 0.0 0.0 0.00 0.66 0.66 89 1012.6
20260504220128 8 211 0.0 0.0 0.00 0.64 0.64 89 1012.6
20260504215918 8 211 0.0 4.8 0.00 0.64 0.64 89 1012.6
20260504215705 8 211 0.0 4.8 0.00 0.64 0.64 89 1012.6
20260504215501 8 211 0.0 4.8 0.00 0.64 0.64 89 1012.6
20260504215248 8 211 0.0 3.2 0.00 0.64 0.64 89 1012.6
20260504215041 8 211 0.0 0.0 0.00 0.64 0.64 89 1012.7
20260504214835 8 211 0.0 0.0 0.00 0.64 0.64 89 1012.7
20260504214623 8 211 0.0 1.6 0.00 0.64 0.64 89 1012.8
20260504214414 8 211 0.0 0.0 0.00 0.64 0.64 89 1012.8
20260504214212 8 211 0.0 0.0 0.00 0.64 0.64 89 1012.8
20260504214011 8 211 0.0 0.0 0.00 0.64 0.64 89 1012.8
20260504213804 8 211 0.0 0.0 0.00 0.61 0.61 89 1012.9
20260504213554 8 211 0.0 3.2 0.00 0.61 0.61 89 1012.8
20260504213346 8 211 0.0 3.2 0.00 0.61 0.61 89 1012.8
20260504212951 8 211 0.0 3.2 0.00 0.61 0.61 89 1012.8
20260504212741 8 211 0.0 1.6 0.00 0.61 0.61 89 1012.8
20260504212533 8 211 0.0 1.6 0.00 0.61 0.61 89 1012.8
20260504212319 8 211 0.0 0.0 0.00 0.61 0.61 90 1012.8
20260504212107 8 211 0.0 4.8 0.00 0.61 0.61 90 1012.8
20260504211900 8 211 0.0 3.2 0.00 0.61 0.61 90 1012.8
20260504211649 8 211 0.0 3.2 0.00 0.61 0.61 90 1012.8
20260504211439 8 211 0.0 3.2 0.00 0.61 0.61 90 1012.8
20260504211233 8 211 0.0 3.2 0.00 0.61 0.61 90 1012.8
20260504211023 8 211 0.0 1.6 0.00 0.61 0.61 90 1012.8
20260504210812 8 211 0.0 3.2 0.00 0.61 0.61 90 1012.7
20260504210425 8 211 0.0 3.2 0.00 0.61 0.61 90 1012.8
20260504210220 8 211 0.0 0.0 0.00 0.61 0.61 90 1012.7
20260504210013 8 211 0.0 0.0 0.00 0.61 0.61 90 1012.8
20260504205800 8 211 0.0 0.0 0.00 0.61 0.61 90 1012.7
20260504205559 8 211 0.0 3.2 0.00 0.61 0.61 90 1012.7
20260504205355 8 211 0.0 3.2 0.00 0.61 0.61 90 1012.6
20260504205153 8 211 0.0 3.2 0.00 0.61 0.61 90 1012.7
20260504204942 8 211 0.0 3.2 0.00 0.61 0.61 90 1012.7
20260504204550 8 211 0.0 4.8 0.00 0.61 0.61 90 1012.6
20260504204338 8 211 0.0 4.8 0.00 0.61 0.61 90 1012.6
20260504204128 8 211 0.0 1.6 0.00 0.61 0.61 89 1012.6
20260504203926 8 211 0.0 3.2 0.00 0.61 0.61 89 1012.6
20260504203722 8 211 0.0 1.6 0.00 0.61 0.61 89 1012.6
20260504203519 8 211 0.0 0.0 0.00 0.61 0.61 89 1012.6
20260504203313 8 211 0.0 1.6 0.00 0.61 0.61 89 1012.6
20260504202924 8 211 0.0 4.8 0.00 0.61 0.61 89 1012.6
20260504202721 8 211 0.0 4.8 0.00 0.61 0.61 89 1012.7
20260504202512 8 211 0.0 4.8 0.00 0.61 0.61 89 1012.8
20260504202120 8 211 0.0 4.8 0.00 0.58 0.58 89 1012.7
20260504201915 8 211 0.0 4.8 0.00 0.58 0.58 89 1012.7
20260504201713 8 211 0.0 4.8 0.00 0.58 0.58 89 1012.7
20260504201501 8 211 1.6 4.8 0.00 0.58 0.58 88 1012.6
20260504201112 8 211 0.0 4.8 0.00 0.58 0.58 88 1012.7
20260504200911 8 211 0.0 4.8 0.00 0.58 0.58 88 1012.6
20260504200704 8 212 0.0 3.2 0.00 0.58 0.58 88 1012.7
20260504200501 8 212 0.0 0.0 0.00 0.58 0.58 88 1012.7
20260504200258 8 212 0.0 0.0 0.00 0.58 0.58 88 1012.7
20260504200055 8 212 0.0 0.0 0.10 0.58 0.58 88 1012.7
20260504195848 8 212 0.0 0.0 0.10 0.58 0.58 88 1012.7
20260504195642 8 212 0.0 0.0 0.10 0.58 0.58 88 1012.7
20260504195440 8 212 0.0 0.0 0.10 0.58 0.58 88 1012.7
20260504195235 8 212 0.0 0.0 0.10 0.58 0.58 88 1012.6
20260504195033 8 212 0.0 0.0 0.10 0.58 0.58 88 1012.6
20260504194642 8 212 0.0 3.2 0.10 0.58 0.58 88 1012.6
20260504194246 8 212 0.0 3.2 0.13 0.56 0.56 88 1012.6
20260504194041 8 212 0.0 3.2 0.13 0.56 0.56 88 1012.6
20260504193652 8 212 0.0 0.0 0.20 0.56 0.56 88 1012.6
20260504192935 8 212 0.0 3.2 0.13 0.53 0.53 88 1012.6
20260504192730 8 212 0.0 0.0 0.13 0.53 0.53 88 1012.6
20260504192520 8 212 0.0 0.0 0.13 0.53 0.53 88 1012.5
20260504192125 8 211 0.0 0.0 0.13 0.51 0.51 88 1012.5
20260504191916 8 211 0.0 3.2 0.15 0.51 0.51 88 1012.4
20260504191706 8 211 0.0 1.6 0.18 0.51 0.51 88 1012.4
20260504191455 8 212 0.0 1.6 0.25 0.51 0.51 88 1012.4
20260504191249 8 212 0.0 1.6 0.36 0.51 0.51 88 1012.3
20260504190707 8 212 0.0 0.0 0.48 0.48 0.48 88 1012.4
20260504190501 8 211 0.0 0.0 0.41 0.46 0.46 88 1012.4
20260504190106 8 211 0.0 0.0 0.15 0.43 0.41 88 1012.3
20260504185902 8 211 0.0 3.2 0.15 0.41 0.41 88 1012.2
20260504185652 8 212 0.0 3.2 0.13 0.41 0.41 88 1012.3
20260504185439 8 212 0.0 0.0 0.13 0.41 0.41 88 1012.3
20260504185235 8 212 0.0 0.0 0.13 0.41 0.41 88 1012.3
20260504185031 8 212 0.0 0.0 0.13 0.41 0.41 88 1012.2
20260504184818 8 212 0.0 0.0 0.00 0.38 0.36 88 1012.2
20260504184611 8 212 0.0 1.6 0.00 0.38 0.36 88 1012.1
20260504184407 8 212 0.0 0.0 0.00 0.38 0.36 88 1012.1
20260504184018 8 212 0.0 0.0 0.00 0.38 0.36 88 1012.1
20260504183623 8 212 0.0 0.0 0.00 0.36 0.36 88 1012.1
20260504183418 8 212 0.0 0.0 0.00 0.36 0.36 88 1012.1
20260504183208 8 212 0.0 0.0 0.00 0.36 0.36 88 1012.1
20260504182956 8 212 0.0 0.0 0.00 0.36 0.36 88 1012.0
20260504182558 8 212 0.0 0.0 0.00 0.36 0.36 88 1012.0
20260504182357 8 211 0.0 1.6 0.00 0.36 0.36 88 1012.1
20260504182148 8 211 0.0 0.0 0.00 0.36 0.36 88 1012.0
20260504181946 8 211 0.0 0.0 0.00 0.36 0.36 88 1012.0
20260504181735 8 211 0.0 3.2 0.00 0.36 0.36 88 1012.0
20260504181528 8 211 0.0 3.2 0.00 0.36 0.36 88 1011.9
20260504181319 8 211 0.0 0.0 0.00 0.36 0.36 88 1011.9
20260504181115 8 211 0.0 0.0 0.00 0.36 0.36 88 1011.9
20260504180912 8 211 0.0 0.0 0.00 0.36 0.36 88 1011.9
20260504180709 8 211 0.0 1.6 0.00 0.36 0.36 88 1011.9
20260504180322 8 211 0.0 1.6 0.00 0.36 0.36 88 1011.9
20260504180116 8 211 0.0 0.0 0.00 0.36 0.36 88 1011.9
20260504175906 8 211 0.0 0.0 0.00 0.36 0.36 88 1011.9
20260504175659 8 211 0.0 0.0 0.00 0.36 0.36 88 1011.9
20260504175451 8 211 0.0 1.6 0.00 0.36 0.36 88 1012.0
20260504175247 8 211 0.0 0.0 0.00 0.36 0.36 88 1012.0
20260504175039 8 211 0.0 0.0 0.00 0.36 0.36 88 1011.9
20260504174831 8 211 0.0 1.6 0.00 0.36 0.36 88 1011.9
20260504174440 8 211 0.0 1.6 0.00 0.36 0.36 88 1011.9
20260504174228 8 211 0.0 4.8 0.00 0.36 0.36 88 1011.9
20260504174018 8 211 0.0 1.6 0.00 0.36 0.36 88 1011.8
20260504173814 8 211 0.0 3.2 0.00 0.36 0.36 88 1011.8
20260504173422 8 210 0.0 3.2 0.00 0.36 0.36 88 1011.8
20260504173210 8 209 0.0 0.0 0.00 0.36 0.36 88 1011.7
20260504173001 8 209 0.0 3.2 0.00 0.36 0.36 88 1011.7
20260504172611 8 208 0.0 3.2 0.00 0.36 0.36 88 1011.6
20260504172409 8 208 0.0 3.2 0.00 0.36 0.36 88 1011.6
20260504172203 8 207 0.0 0.0 0.00 0.36 0.36 88 1011.6
20260504171956 8 207 0.0 0.0 0.00 0.36 0.36 88 1011.5
20260504171750 8 207 0.0 1.6 0.00 0.36 0.36 88 1011.5
20260504171539 8 207 0.0 1.6 0.00 0.36 0.36 88 1011.4
20260504171328 8 207 0.0 0.0 0.00 0.36 0.36 88 1011.4
20260504171120 8 207 0.0 0.0 0.00 0.36 0.36 88 1011.4
20260504170915 8 207 0.0 0.0 0.00 0.36 0.36 88 1011.4
20260504170712 8 207 0.0 0.0 0.00 0.36 0.36 88 1011.3
20260504170504 8 207 0.0 0.0 0.00 0.36 0.36 88 1011.3
20260504160432 8 38 0.0 0.0 0.00 0.36 0.36 87 1011.0
20260504160222 8 38 0.0 0.0 0.00 0.36 0.36 87 1011.0